Regional Weather Roundup
Issued by NWS

Home | Current Version | Previous Version | Graphics & Text | Print | Product List | Glossary On
Versions: 1 2 3 4 5 6 7 8 9 10 11 12 13 14 15 16 17 18 19 20 21 22 23 24 25 26 27 28 29 30 31 32 33 34 35 36 37 38 39 40 41 42 43 44 45 46 47 48 49 50
000
ASUS43 KLOT 241612
RWRIL

ILLINOIS REGIONAL WEATHER ROUNDUP
NATIONAL WEATHER SERVICE CHICAGO/ROMEOVILLE IL
1000 AM CST TUE JAN 24 2017

NOTE: "FAIR" INDICATES FEW OR NO CLOUDS BELOW 12,000 FEET WITH NO
SIGNIFICANT WEATHER AND/OR OBSTRUCTIONS TO VISIBILITY.

* THESE STATIONS ARE NOT UNDER NWS QUALITY CONTROL. THEY ALSO MAY NOT
  REPORT WEATHER SUCH AS PRECIPITATION OR FOG.

ILZ001-002-007-009-015-016-024-241700-
NORTHWEST ILLINOIS

CITY           SKY/WX    TMP DP  RH WIND       PRES   REMARKS
MOLINE         CLOUDY    36  30  79 E5        29.89F WCI  32
STERLING*      CLOUDY    36  33  89 NW3       29.91R
SAVANNA*       CLOUDY    34  32  90 CALM      29.91S
$$

ILZ003-004-008-010-011-017-018-241700-
NORTH CENTRAL ILLINOIS

CITY           SKY/WX    TMP DP  RH WIND       PRES   REMARKS
ROCKFORD       CLOUDY    36  30  79 N3        29.91R
FREEPORT*      CLOUDY    34  30  86 CALM      29.91R
ROCHELLE*      CLOUDY    35  31  86 W3        29.91R
DE KALB*       CLOUDY    34  32  92 N3        29.89S
PERU*          CLOUDY    35  32  89 CALM      29.91R FOG
$$

ILZ005-006-012>014-019>023-241700-
NORTHEAST ILLINOIS

CITY           SKY/WX    TMP DP  RH WIND       PRES   REMARKS
CHICAGO-OHARE  CLOUDY    35  31  85 VRB5      29.89R WCI  31
CHICAGO-MIDWAY CLOUDY    37  30  75 NW9       29.89S WCI  30
AURORA         CLOUDY    37  31  78 NW5       29.89S WCI  33
LANSING*       CLOUDY    37  34  90 N3        29.90S
JOLIET*        CLOUDY    38  33  80 W3        29.90S
WAUKEGAN       CLOUDY    36  32  85 VRB3      29.88S
DUPAGE AIRPORT CLOUDY    35  30  82 NW6       29.88S WCI  30
KANKAKEE*      CLOUDY    38  32  79 CALM      29.91S
WHEELING       CLOUDY    34  31  88 NW8       29.90S WCI  27
MORRIS*        CLOUDY    38  32  79 N3        29.89S
ROMEOVILLE*    CLOUDY    36  33  90 NW3       29.89S
NORTHERLY ISL    N/A     36  31  82 W3          N/A
$$

LMZ740>746-241700-
SOUTHERN LAKE MICHIGAN

STATION/POSITION SKY/WX   TEMP    WIND        PRES    VSBY  WAVE
                          AIR SEA DIR/SP/G                  HT/PER
                          (F)     (DEG/KT/KT) (MB)    (MI)  (FT/S)
HARRISON CRIB              36     340/  7/  8   N/A
BURNHAM HARBOR             36     290/  3/  9   N/A
CALUMET HARBOR             37     280/  2/  4 1011.9R
BURNS HARBOR               35     330/  5/  7 1012.9
$$

ILZ025>027-034>036-040-047-049-050-058-095>099-241700-
WEST-CENTRAL ILLINOIS

CITY           SKY/WX    TMP DP  RH WIND       PRES   REMARKS
QUINCY         CLOUDY    35  30  82 SE10      29.87F WCI  27
GALESBURG*     CLOUDY    35  32  90 CALM      29.89F
MACOMB*        CLOUDY    35  32  89 SE6       29.92R WCI  30
JACKSONVILLE*  CLOUDY    37  31  79 SE6       29.90S WCI  32
PITTSFIELD*    CLOUDY    36  32  85 SE9       29.89F WCI  29
$$

ILZ028>032-037-038-041>044-048-051>054-059>061-241700-
CENTRAL ILLINOIS

CITY           SKY/WX    TMP DP  RH WIND       PRES   REMARKS
PONTIAC        CLOUDY    38  38  97 W3        29.92R FOG
BLOOMINGTON    CLOUDY    38  30  74 CALM      29.92R
DECATUR        CLOUDY    38  34  85 CALM      29.92R
PEORIA         CLOUDY    37  33  85 CALM      29.91S
LACON*         CLOUDY    36  34  94 CALM      29.90F FOG
LINCOLN*       CLOUDY    38  35  89 CALM      29.92S
SPRINGFIELD    CLOUDY    40  31  70 SE6       29.91R
TAYLORVILLE    CLOUDY    38  32  76 SE3       29.91R
$$

ILZ033-039-045-046-055>057-062-063-241700-
EAST-CENTRAL ILLINOIS

CITY           SKY/WX    TMP DP  RH WIND       PRES   REMARKS
CHAMPAIGN      CLOUDY    39  31  72 VRB3      29.90R
RANTOUL*         N/A     40  36  83 NE3       29.89S
MATTOON        CLOUDY    38  33  82 S5        29.91R WCI  34
PARIS*         CLOUDY    40  34  80 N5        29.91S
$$

ILZ079-100>102-241700-
SOUTHWEST ILLINOIS

CITY           SKY/WX    TMP DP  RH WIND       PRES   REMARKS
ALTON          CLOUDY    39  32  75 S8        29.91S WCI  34
BELLEVILLE     MOSUNNY   43  34  70 E8        29.90S
CAHOKIA*       MOSUNNY   43  33  68 SE7       29.90S
SPARTA*        SUNNY     40  32  74 SE5       29.92S
$$

ILZ064>066-069>071-074>076-080>082-084>086-088>090-092>094-241700-
SOUTH-CENTRAL ILLINOIS

CITY           SKY/WX    TMP DP  RH WIND       PRES   REMARKS
CARBONDALE     SUNNY     43  35  73 SE7       29.92F
CAIRO*         SUNNY     42  35  75 SE5       29.95R
EFFINGHAM*     CLOUDY    40  35  81 E5        29.93S
MARION         MOSUNNY   46  36  66 E9        29.93S
MT. VERNON     MOSUNNY   43  34  70 VRB5      29.92S
CENTRALIA*     CLOUDY    42  35  73 SE7       29.91S
SALEM*         CLOUDY    42  33  70 E3        29.90F
METROPOLIS*    MOSUNNY   44  35  70 CALM      29.94S
$$

ILZ067-068-072-073-078-083-087-091-241700-
SOUTHEAST ILLINOIS

CITY           SKY/WX    TMP DP  RH WIND       PRES   REMARKS
LAWRENCEVILLE  CLOUDY    41  35  79 NW5       29.94S
FLORA*         CLOUDY    43  34  72 E7        29.91F
FAIRFIELD*     PTSUNNY   43  34  70 E5        29.90F
HARRISBURG*    PTSUNNY   42  34  73 E6        29.94S
ROBINSON*      CLOUDY    39  33  80 CALM      29.95R
CARMI*         CLOUDY    42  35  74 NE3       29.93F
$$

ABBREVIATIONS USED IN REMARKS
   TC - TEMPERATURE IN CELSIUS
  WCI - WIND CHILL INDEX
   HX - HEAT INDEX
  VSB - VISIBILITY
$$




USA.gov is the U.S. government's official web portal to all federal, state and local government web resources and services.